CPA875 KDFW-VHHH

Flight info

Callsign CPA875
Flight time N/A
Altitude 40000
Route HUDAD2 HUDAD DCT CDS DCT BGD DCT TBE DCT KD45W DCT KD54U DCT KU66Q DCT KS06G DCT SEFIX DCT ORNAI DCT 51N140W 53N150W 55N160W DCT ALUFF DCT EDWAL DCT NIKLL R220 IXE Y88 NAKTU Y12 KOHWA Y54 TURFY Y24 KOSHI Y50 IGMON A1 APU DCT MKG A1 ELATO V522 ABBEY
Aircraft A35K/H-SDE2E3GHIJ3J4J5LM1ORWXY/LB1D1

Departure

Time 2026-04-30 11:35
Airport Dallas Fort Worth International Airport (KDFW)

Arrival

Time N/A
Airport Hong Kong International Airport (VHHH)
Time Latitude Longitude Altitude Speed Heading
2026-04-30 11:17 32.89493 -97.04453 604 ft 0 kts 359°
2026-04-30 11:25 32.89491 -97.04453 613 ft 2 kts 359°
2026-04-30 11:25 32.89462 -97.04452 615 ft 2 kts 357°
2026-04-30 11:26 32.89428 -97.04445 621 ft 3 kts 302°
2026-04-30 11:26 32.89426 -97.04425 615 ft 2 kts 269°
2026-04-30 11:26 32.89427 -97.04389 621 ft 7 kts 266°
2026-04-30 11:27 32.89429 -97.04363 621 ft 0 kts 264°
2026-04-30 11:27 32.89428 -97.04371 621 ft 4 kts 264°
2026-04-30 11:27 32.89427 -97.04408 621 ft 5 kts 270°
2026-04-30 11:27 32.89427 -97.04449 621 ft 5 kts 271°
2026-04-30 11:28 32.89429 -97.04601 618 ft 13 kts 271°
2026-04-30 11:28 32.89430 -97.04697 616 ft 8 kts 270°
2026-04-30 11:28 32.89404 -97.04750 621 ft 9 kts 213°
2026-04-30 11:29 32.89323 -97.04771 612 ft 14 kts 186°
2026-04-30 11:29 32.89225 -97.04771 614 ft 15 kts 180°
2026-04-30 11:29 32.88981 -97.04769 621 ft 16 kts 180°
2026-04-30 11:30 32.88759 -97.04773 612 ft 16 kts 181°
2026-04-30 11:30 32.88649 -97.04774 612 ft 16 kts 179°
2026-04-30 11:30 32.88550 -97.04776 611 ft 12 kts 192°
2026-04-30 11:31 32.88472 -97.04804 617 ft 12 kts 194°
2026-04-30 11:31 32.88392 -97.04810 618 ft 12 kts 180°
2026-04-30 11:31 32.88310 -97.04810 612 ft 12 kts 180°
2026-04-30 11:31 32.88228 -97.04811 612 ft 12 kts 180°
2026-04-30 11:32 32.88142 -97.04811 611 ft 12 kts 180°
2026-04-30 11:32 32.88055 -97.04811 621 ft 12 kts 180°
2026-04-30 11:32 32.87984 -97.04841 611 ft 10 kts 244°
2026-04-30 11:33 32.87987 -97.04998 615 ft 10 kts 270°
2026-04-30 11:33 32.87993 -97.05055 621 ft 6 kts 291°
2026-04-30 11:33 32.88021 -97.05085 619 ft 6 kts 340°
2026-04-30 11:33 32.88101 -97.05091 612 ft 17 kts
2026-04-30 11:34 32.88377 -97.05092 613 ft 71 kts 358°
2026-04-30 11:34 32.89080 -97.05088 611 ft 133 kts
2026-04-30 11:34 32.90191 -97.05086 618 ft 186 kts
2026-04-30 11:34 32.91640 -97.05048 803 ft 222 kts
2026-04-30 11:35 32.93197 -97.05093 1558 ft 229 kts 359°
2026-04-30 11:35 32.94865 -97.05369 2206 ft 254 kts 350°
2026-04-30 11:35 32.96581 -97.06069 3042 ft 265 kts 343°
2026-04-30 11:35 32.98278 -97.06870 4136 ft 262 kts 344°
2026-04-30 11:36 32.99917 -97.07889 5048 ft 270 kts 323°
2026-04-30 11:36 33.00355 -97.08390 5310 ft 272 kts 312°